Location: Unspecified
(0.0000°N, 0.0000°E)
Time: 08:57:19
(UTC+00:00)

ARIANE 2 DEB - Pass Details

Date: 15 March 2026
Orbit: 598 x 35366 km, 8.4° (Epoch: 18 September)

Event Time Altitude Azimuth Distance (km) Brightness Sun altitude
Exits shadow 05:23:54 11° 282° (WNW) 8,245 ? -11.3°
Maximum altitude 07:21:28 80° 299° (WNW) 25,972 ? 18.1°
Drops below altitude 10° 15:03:40 10° 103° (ESE) 4,443 ? 46.3°
Sets 15:05:33 0° 100° (E) 4,876 ? 45.8°
